Regional Weather Roundup
Issued by NWS Grand Forks, ND

Home | Current Version | Previous Version | Graphics & Text | Print | Product List | Glossary On
Versions: 1 2 3 4 5 6 7 8 9 10 11 12 13 14 15 16 17 18 19 20 21 22 23 24 25 26 27 28 29 30 31 32 33 34 35 36 37 38 39 40 41 42 43 44 45 46 47 48 49 50
000
ASUS43 KFGF 301610
RWRFGF
PRAIRIE TO PINES  WEATHER ROUNDUP
NATIONAL WEATHER SERVICE EASTERN NORTH DAKOTA/GRAND FORKS ND
1100 AM CDT TUE JUN 30 2015

 **SATELLITE DATA USED TO AUGMENT SKY COVER AT AUTOMATED STATIONS**
 *****  WEATHER ACROSS EASTERN NORTH DAKOTA  *****

CITY           SKY/WX    TMP DP  RH WIND       PRES   REMARKS
GRAND FORKS    CLOUDY    69  59  70 CALM      29.95F
GRAND FRKS AFB CLOUDY    67  61  79 SE3       29.96S
GRAND FRKS NWS   N/A     70 N/A N/A SE1         N/A
DEVILS LAKE    CLOUDY    66  57  72 SE3       29.95F
FARGO          PTSUNNY   70  60  70 E5        29.95F
WAHPETON ARPT  PTSUNNY   68  59  73 E3        29.96S
$$

 ***** WEATHER ACROSS CENTRAL AND WESTERN NORTH DAKOTA  *****

CITY           SKY/WX    TMP DP  RH WIND       PRES   REMARKS
BISMARCK       LGT RAIN  67  64  90 NE5       29.97S FOG
MINOT          CLOUDY    65  63  93 E5        29.94S FOG
JAMESTOWN      CLOUDY    69  60  73 E6        29.95F
MINOT AFB      CLOUDY    65  65 100 SE3       29.94R
GARRISON         N/A     67  65  93 SE5       29.94F
WILLISTON      PTSUNNY   81  58  45 NE10      29.92F HAZE
DICKINSON      CLOUDY    69  63  81 E8        29.93F HAZE
HETTINGER      CLOUDY    70  61  73 E12       29.95R
$$

 *****  OTHER AIRPORT OBSERVATIONS IN OUR AREA  *****

CITY           SKY/WX    TMP DP  RH WIND       PRES   REMARKS
WALHALLA       FAIR      66  66 100 MISG      29.97S
GRAFTON AIRPOR FAIR      68  63  83 S3        29.97S
VALLEY CITY AR FAIR      64  64 100 SE8       29.96S
CANDO          FAIR      66  63  88 SE6       29.97F
CAVALIER APRT  FAIR      68  63  83 CALM      29.96S
GWINNER        NOT AVBL
ROLLA          FAIR      63  61  94 S6        29.98F
 ***** THE ABOVE OBSERVATIONS ARE NON NWS ARE NOT QUALITY
       CONTROLLED AND MAY MIS-REPORT RAIN FOR SNOW...
$$

  *****  WEATHER ACROSS NORTHERN MINNESOTA  *****

CITY           SKY/WX    TMP DP  RH WIND       PRES   REMARKS
FLAG ISLAND    SUNNY     63  50  63 SE6       29.98F
WARROAD        SUNNY     64  55  72 E7        30.00S
ROSEAU         MOSUNNY   68  57  68 S3        29.98F
HALLOCK        MOSUNNY   68  61  77 S5        29.96F
THF RVR FALLS  PTSUNNY   66  57  72 E3        29.98F
BAUDETTE       SUNNY     64  53  67 SE5       29.98F
WASKISH        SUNNY     66  54  63 NE5       29.98S
CROOKSTON      PTSUNNY   70  61  73 CALM      29.97F
$$
  *****  WEATHER ACROSS CENTRAL AND WEST MINNESOTA  *****

CITY           SKY/WX    TMP DP  RH WIND       PRES   REMARKS
FOSSTON        MOSUNNY   70  61  73 CALM      29.98F
BEMIDJI        SUNNY     67  56  69 CALM      29.98S
PARK RAPIDS    MOSUNNY   72  56  57 VRB3      29.97S
ELBOW LAKE     FAIR      69  57  63 SE3       29.96F
WADENA         MOSUNNY   70  57  64 NE3       29.97S
DETROIT LAKES  PTSUNNY   70  54  56 CALM      29.98F
MOORHEAD       PTSUNNY   68  61  77 CALM      29.96F
FERGUS FALLS   PTSUNNY   70  57  64 CALM      29.95F
MORRIS MN      MOSUNNY   72  59  64 E6        29.95S
STAPLES        MOSUNNY   70  55  60 CALM      29.97S
$$
  *****  WEATHER ELSEWHERE ACROSS MINNESOTA  *****

CITY           SKY/WX    TMP DP  RH WIND       PRES   REMARKS
DULUTH         CLOUDY    57  48  72 SE6       29.99R
INTRNTL FALLS  SUNNY     63  49  60 E8        29.99S
ELY            SUNNY     59  46  63 NE7       29.99S
CLOQUET        CLOUDY    59  50  72 E7        29.99R
WHEATON        MOSUNNY   66  61  82 E5        29.97S
BRAINERD       SUNNY     70  55  59 N7        29.97S
HIBBING        CLOUDY    62  51  67 VRB3      29.99S
ALEXANDRIA     MOSUNNY   71  55  56 E5        29.98S
SAINT CLOUD    PTSUNNY   71  59  65 NE5       29.95S
MINNEAPOLIS    PTSUNNY   70  60  70 NE8G21    29.94R
$$

  *****  WEATHER ACROSS SOUTH DAKOTA  *****

CITY           SKY/WX    TMP DP  RH WIND       PRES   REMARKS
SIOUX FALLS    CLOUDY    71  63  75 SW3       29.96R
BROOKINGS      PTSUNNY   72  64  78 SE3       29.96S
WATERTOWN      MOSUNNY   73  62  68 E5        29.94S
HURON          CLOUDY    68  65  90 SE6       29.91F FOG
SISSETON         N/A     70  61  73 SE8       29.93F
ABERDEEN       CLOUDY    73  63  70 S5        29.93S
MITCHELL       CLOUDY    68  66  93 S3        29.92F
PIERRE         CLOUDY    74  64  71 SE13      29.90F
MOBRIDGE       CLOUDY    71  67  87 SE7       29.91S
RAPID CITY     CLOUDY    74  65  73 W5        29.94F
$$

  *****  SOME WEATHER IN NEARBY STATES *****

CITY           SKY/WX    TMP DP  RH WIND       PRES   REMARKS
GLASGOW MT     NOT AVBL
GREAT FALLS MT SUNNY     83  56  39 SW15      30.00S
CHEYENNE WY    SUNNY     83  45  26 CALM      30.19F
SCOTTSBLUFF NE MOSUNNY   81  58  45 VRB5      30.03F
OMAHA NE       CLOUDY    76  64  66 CALM      29.93F HAZE
DES MOINES IA  CLOUDY    76  65  68 NW3       29.90F
DAVENPORT IA   SUNNY     75  62  64 N7        29.87S
CHICAGO IL     MOSUNNY   71  61  70 W8        29.81S
EAU CLAIRE WI  PTSUNNY   66  56  70 NE8       29.92S
LA CROSSE WI   CLOUDY    65  59  81 NW8       29.91R
$$

  *****  SOME NATIONAL WEATHER *****

CITY           SKY/WX    TMP DP  RH WIND       PRES   REMARKS
LA GUARDIA NY  MOSUNNY   80  57  45 S22G29    29.95F
RALEIGH NC     MOSUNNY   86  67  52 SW9       29.95F
ATLANTA GA     CLOUDY    81  71  71 W7        30.03S
NEW ORLEANS LA PTSUNNY   87  74  64 SW13      30.08F HX  95
OKLAHOMA CITY  MOSUNNY   84  65  52 SW8       30.03F
ALBUQUERQUE NM MOSUNNY   78  50  37 NW8       30.27S
SALT LAKE CITY MOSUNNY   88  55  32 SE6       30.07S
LOS ANGELES CA MOSUNNY   72  63  73 W6        29.91R
BOISE ID       SUNNY     83  58  42 W3        30.02R
SEATTLE WA     CLOUDY    62  57  83 VRB5      30.13S HAZE
$$

*** WEATHER ACROSS MANITOBA...SASKATCHEWAN AND ONTARIO ***
                ***ONTARIO***

CITY           SKY/WX    TMP DP  RH WIND       PRES   REMARKS
GERALDTON      PTSUNNY   54  39  58 N9        30.01R
THUNDER BAY    SUNNY     61  39  44 E9G17     29.98F
SIOUX LOOKOUT  PTSUNNY   61  46  59 VRB3      30.02F
TORONTO        CLOUDY    64  59  82 E12       29.82S
BIG TROUT LK   MOSUNNY   59  39  47 S9        30.02F
PICKLE LAKE    PTSUNNY   57  39  51 W3        30.03F
DRYDEN         PTSUNNY   61  48  63 VRB2      30.02S
KENORA         MOSUNNY   64  50  59 E7        30.00F
$$
                *** MANITOBA***

CITY           SKY/WX    TMP DP  RH WIND       PRES   REMARKS
BRANDON        CLOUDY    64  63  94 S3        29.98S
DAUPHIN        SUNNY     66  59  77 NW3       29.97S
ISLAND LAKE    PTSUNNY   61  46  59 NW5       30.00F
PILOT MOUND      N/A     64  61  88 SE3         N/A
THE PAS        CLOUDY    68  59  73 S7        29.93F
THOMPSON       PTSUNNY   63  52  67 SW7       29.95F
WINNIPEG       PTSUNNY   68  61  77 S5        29.97F
LYNN LAKE      CLOUDY    61  59  94 E3        29.91F
CHURCHILL      MOSUNNY   61  41  48 N9        29.92S
GILLAM         PTSUNNY   63  45  51 S10       29.96F
$$
                ***SASKATCHEWAN***

CITY           SKY/WX    TMP DP  RH WIND       PRES   REMARKS
ESTEVAN        LGT RAIN  64  61  88 CALM      29.95S SMOKE
KINDERSLEY     LGT RAIN  59  55  88 NE14      29.94F VSB 1
LLOYDMINSTER   LGT RAIN  61  57  88 NW10      29.98S
PRINCE ALBERT  SMOKE     68  61  77 SW3       29.92F VSB 1
REGINA         LGT RAIN  63  61  94 S8        29.95F VSB 5/8
YORKTON        CLOUDY    66  61  82 SE8       29.95F
N. BATTLEFORD    N/A    N/A N/A N/A MISG        N/A
LA RONGE       SMOKE     68  59  73 CALM      29.89F VSB 1/2
SASKATOON        N/A     66  57  72 SW10      29.95S SMOKE
SWIFT CURRENT  SUNNY     66  52  59 SE18      29.91F HAZE
$$
NOTE: THESE ARE AUTOMATED STATIONS WITH LIMITED QUALITY CONTROL
      "FAIR" INDICATES FEW OR NO CLOUDS BELOW 12,000 FEET WITH NO
      SIGNIFICANT WEATHER AND/OR OBSTRUCTIONS TO VISIBILITY.
      SKY/WX - SKY CONDITION AND SIGNIFICANT WEATHER.
      TMP - AIR TEMPERATURE.    DP   - DEWPOINT TEMPERATURE.
      RH  - RELATIVE HUMIDITY.  PRES - PRESSURE.
      HX  - HEAT INDEX.         WCI  - WIND CHILL INDEX.
$



USA.gov is the U.S. government's official web portal to all federal, state and local government web resources and services.